Weather History for Ord, NE

Change the Weather History Date:

Monday, July 29, 2013

  Actual Average Record
Temperature  
Mean Temperature 63 °F 75 °F  
Max Temperature 67 °F 88 °F 101 °F (2012)
Min Temperature 59 °F 62 °F 51 °F (2004)
Degree Days  
Heating Degree Days 2 0  
Month to date heating degree days 7 0  
Since 1 June heating degree days 54 37  
Since 1 July heating degree days 7 0  
Cooling Degree Days 0 10  
Month to date cooling degree days 260 277  
Year to date cooling degree days 473 480  
Since 1 June cooling degree days 426 439  
Growing Degree Days 12 (Base 50)    
Moisture  
Dew Point 61 °F    
Average Humidity 87    
Maximum Humidity 100    
Minimum Humidity 73    
Precipitation  
Precipitation 0.19 in 0.16 in 1.73 in (1948)
Month to date precipitation 3.53 2.62  
Year to date precipitation 15.60 15.40  
Sea Level Pressure  
Sea Level Pressure 30.01 in    
Wind  
Wind Speed 5 mph (SE)    
Max Wind Speed 12 mph    
Max Gust Speed 16 mph    
Visibility 6 miles    
Events Rain    
T = Trace of Precipitation, MM = Missing Value Source: NWS Daily Summary

Daily Weather History Graph

Daily Weather History Graph

Search for Another Location

Airport:

Trip Planner

Search our weather history database for the weather conditions in past years. The results will help you decide how hot, cold, wet, or windy it might be!

Date:

Astronomy

Jul. 29, 2013 Rise Set
Actual Time 6:27 AM CDT 8:56 PM CDT
Civil Twilight 5:55 AM CDT 9:27 PM CDT
Nautical Twilight 5:16 AM CDT 10:06 PM CDT
Astronomical Twilight 4:32 AM CDT 10:50 PM CDT
Moon 12:13 AM CDT (7/29) 2:18 PM CDT (7/29)
Length of Visible Light 15h 31m
Length of Day
14h 28m
Waning Gibbous, 50% of the Moon is Illuminated
Jul 29
Waning Gibbous
Jul 29
Last Quarter
Aug 6
New
Aug 14
First Quarter
Aug 20
Full

Hourly Weather History & Observations

Time (CDT) Temp. Dew Point Humidity Pressure Visibility Wind Dir Wind Speed Gust Speed Precip Events Conditions
12:53 AM 64.0 °F 55.0 °F 73% 30.02 in 10.0 mi SE 5.8 mph - N/A   Overcast
1:14 AM 64.4 °F 55.4 °F 73% 30.04 in 10.0 mi South 9.2 mph - N/A   Overcast
1:53 AM 63.0 °F 55.9 °F 78% 30.01 in 10.0 mi SSE 5.8 mph - N/A   Overcast
2:53 AM 62.1 °F 55.9 °F 80% 30.00 in 7.0 mi SE 5.8 mph - 0.01 in Rain Light Rain
3:19 AM 62.6 °F 55.4 °F 77% 30.02 in 10.0 mi SSE 5.8 mph - 0.00 in Rain Light Rain
3:37 AM 60.8 °F 57.2 °F 88% 30.02 in 10.0 mi SE 6.9 mph - 0.00 in Rain Light Rain
3:53 AM 61.0 °F 57.9 °F 90% 30.00 in 6.0 mi SE 9.2 mph - 0.01 in Rain Light Rain
4:53 AM 60.1 °F 57.9 °F 93% 29.99 in 6.0 mi ESE 4.6 mph - 0.03 in Rain Rain
5:27 AM 59.0 °F 57.2 °F 94% 30.01 in 8.0 mi ESE 8.1 mph - 0.01 in Rain Light Rain
5:53 AM 59.0 °F 57.9 °F 96% 30.00 in 5.0 mi ESE 5.8 mph - 0.03 in Rain Light Rain
6:53 AM 59.0 °F 59.0 °F 100% 29.99 in 3.0 mi ESE 6.9 mph - 0.03 in Rain Light Rain
7:01 AM 60.8 °F 59.0 °F 94% 30.01 in 2.0 mi SE 5.8 mph - 0.00 in Rain Light Rain
7:21 AM 60.8 °F 59.0 °F 94% 30.01 in 1.8 mi SE 5.8 mph - 0.02 in Rain Light Rain
7:53 AM 60.1 °F 59.0 °F 96% 29.99 in 1.5 mi ESE 5.8 mph - 0.05 in Rain Light Rain
8:08 AM 60.8 °F 60.8 °F 100% 30.00 in 2.5 mi SE 6.9 mph - 0.00 in Rain Light Rain
8:31 AM 60.8 °F 60.8 °F 100% 30.00 in 5.0 mi SE 6.9 mph - 0.01 in Rain Light Rain
8:53 AM 62.1 °F 60.1 °F 93% 29.99 in 7.0 mi SE 8.1 mph - 0.01 in   Overcast
9:18 AM 60.8 °F 60.8 °F 100% 30.00 in 2.0 mi SE 9.2 mph - N/A   Overcast
9:40 AM 60.8 °F 60.8 °F 100% 30.00 in 1.8 mi Variable 6.9 mph - N/A   Overcast
9:53 AM 62.1 °F 61.0 °F 96% 29.99 in 1.5 mi SE 5.8 mph - N/A   Overcast
10:26 AM 62.6 °F 60.8 °F 94% 29.99 in 1.0 mi SE 6.9 mph - N/A   Overcast
10:39 AM 62.6 °F 60.8 °F 94% 29.99 in 1.2 mi SE 8.1 mph - 0.01 in   Overcast
10:53 AM 62.1 °F 62.1 °F 100% 29.98 in 1.2 mi SE 6.9 mph - 0.01 in   Overcast
11:53 AM 64.0 °F 63.0 °F 96% 29.99 in 2.0 mi SSE 8.1 mph - N/A   Overcast
12:01 PM 64.4 °F 62.6 °F 94% 30.00 in 2.0 mi SE 6.9 mph - N/A   Overcast
12:24 PM 64.4 °F 62.6 °F 94% 30.01 in 1.8 mi SSE 8.1 mph - N/A   Overcast
12:53 PM 63.0 °F 62.1 °F 97% 30.00 in 1.8 mi SE 6.9 mph - 0.01 in   Overcast
1:05 PM 64.4 °F 62.6 °F 94% 30.00 in 2.5 mi SSE 6.9 mph - N/A   Overcast
1:15 PM 64.4 °F 62.6 °F 94% 30.00 in 3.0 mi SSE 5.8 mph - N/A   Overcast
1:53 PM 64.9 °F 62.1 °F 90% 30.00 in 9.0 mi SE 5.8 mph - N/A   Overcast
2:33 PM 66.2 °F 62.6 °F 88% 30.00 in 10.0 mi SE 5.8 mph - N/A   Overcast
2:46 PM 66.2 °F 62.6 °F 88% 30.01 in 10.0 mi SSE 4.6 mph - N/A   Overcast
2:53 PM 64.9 °F 63.0 °F 93% 30.00 in 10.0 mi South 6.9 mph - N/A   Overcast
3:53 PM 66.0 °F 62.1 °F 87% 30.00 in 10.0 mi SSE 5.8 mph - N/A   Overcast
4:01 PM 66.2 °F 62.6 °F 88% 30.01 in 10.0 mi SSE 5.8 mph - N/A   Overcast
4:08 PM 66.2 °F 62.6 °F 88% 30.01 in 10.0 mi South 5.8 mph - N/A   Overcast
4:18 PM 66.2 °F 62.6 °F 88% 30.01 in 10.0 mi SE 6.9 mph - N/A   Overcast
4:24 PM 66.2 °F 62.6 °F 88% 30.01 in 9.0 mi ESE 8.1 mph - N/A   Overcast
4:53 PM 66.0 °F 63.0 °F 90% 30.00 in 8.0 mi ESE 5.8 mph - N/A   Overcast
5:53 PM 64.9 °F 63.0 °F 93% 29.99 in 8.0 mi ESE 5.8 mph - N/A   Overcast
6:53 PM 64.9 °F 63.0 °F 93% 29.99 in 7.0 mi SE 4.6 mph - N/A   Overcast
7:07 PM 64.4 °F 62.6 °F 94% 30.00 in 9.0 mi Calm Calm - N/A   Overcast
7:28 PM 64.4 °F 62.6 °F 94% 30.00 in 7.0 mi ESE 5.8 mph - N/A   Overcast
7:53 PM 64.9 °F 63.0 °F 93% 30.00 in 10.0 mi Calm Calm - N/A   Overcast
8:10 PM 64.4 °F 62.6 °F 94% 30.02 in 10.0 mi ESE 3.5 mph - N/A   Overcast
8:53 PM 64.9 °F 62.1 °F 90% 30.03 in 10.0 mi ESE 4.6 mph - N/A   Overcast
9:14 PM 64.4 °F 62.6 °F 94% 30.05 in 6.0 mi SE 5.8 mph - N/A   Overcast
9:38 PM 64.4 °F 62.6 °F 94% 30.06 in 2.5 mi SE 6.9 mph - N/A   Overcast
9:48 PM 64.4 °F 62.6 °F 94% 30.06 in 3.0 mi SE 6.9 mph - N/A   Overcast
9:53 PM 64.0 °F 63.0 °F 96% 30.05 in 2.5 mi SE 5.8 mph - N/A   Overcast
10:06 PM 64.4 °F 62.6 °F 94% 30.06 in 3.0 mi SSE 5.8 mph - N/A   Overcast
10:53 PM 64.0 °F 63.0 °F 96% 30.06 in 5.0 mi Calm Calm - N/A   Overcast
11:53 PM 64.0 °F 63.0 °F 96% 30.05 in 5.0 mi South 4.6 mph - N/A   Overcast